Regional Weather Roundup
Issued by NWS

Home | Current Version | Previous Version | Text Only | Print | Product List | Glossary On
Versions: 1 2 3 4 5 6 7 8 9 10 11 12 13 14 15 16 17 18 19 20 21 22 23 24 25 26 27 28 29 30 31 32 33 34 35 36 37 38 39 40 41 42 43 44 45 46 47 48 49 50
000
ASCA44 KEWX 272320
RWRMX

LATIN AMERICA AND CARIBBEAN REGIONAL WEATHER ROUNDUP
NATIONAL WEATHER SERVICE AUSTIN/SAN ANTONIO TX
600 PM CDT SAT AUG 27 2016

NOTE: "FAIR" INDICATED FEW OR NO CLOUDS BELOW 12,000 FEET WITH NO
SIGNIFICANT WEATHER AND/OR OBSTRUCTIONS TO VISIBILITY.

BAJA CALIFORNIA

CITY           SKY/WX    TMP DP  RH WIND       PRES   REMARKS
LORETO         MOSUNNY   93 N/A N/A NE12      29.78F
LA PAZ         MOSUNNY   97  55  24 N5        29.82S HX  95
MEXICALI       MOSUNNY  100  39  12 CALM      29.78F HX  95
S.J. DEL CABO  MOSUNNY   90  66  45 SE16      29.84  HX  92
TIJUANA        SUNNY     72  55  56 CALM      29.97F

NORTHWESTERN MEXICO

CITY           SKY/WX    TMP DP  RH WIND       PRES   REMARKS
CULIACAN       MOSUNNY   95  73  49 W12       29.76F HX 105
DURANGO        CLOUDY    72  55  56 NE16      30.16R THUNDER
GUAYMAS        MOSUNNY   93  79  62 S17       29.75F HX 110
HERMOSILLO     MOSUNNY  100  59  25 W5        29.84F HX 100
CD. JUAREZ     PTSUNNY   90  61  37 S7        29.93F
LOS MOCHIS     MOSUNNY   93  66  40 NW16      29.80F HX  96
OBREGON        MOSUNNY   99  68  36 W8        29.76F HX 104

NORTHEASTERN MEXICO

CITY           SKY/WX    TMP DP  RH WIND       PRES   REMARKS
CHIHUAHUA      PTSUNNY   84  54  34 CALM      30.04S
MATAMOROS      MOSUNNY   91  73  55 E13       29.85F HX 100
MONCLOVA       PTSUNNY   84  68  58 E6        29.91
MONTERREY      PTSUNNY   91  59  33 E8        29.88S HX  90
NUEVO LAREDO   MOSUNNY   95  64  36 E12       29.85S HX  97
PIEDRAS NEGRAS PTSUNNY   95  68  41 E7        29.90S HX  99
REYNOSA          N/A    N/A N/A N/A MISG        N/A
SALTILLO       CLOUDY    75  61  60 N12       30.15R
TORREON        PTSUNNY   86  64  48 CALM      29.99
CD. VICTORIA   MOSUNNY   99  54  22 E9        29.84F HX  96

WESTERN MEXICO

CITY           SKY/WX    TMP DP  RH WIND       PRES   REMARKS
AGUASCALIENTES PTSUNNY   75  54  46 NW6       30.17F
COLIMA         PTSUNNY   81  73  78 W8        29.92R
DEL BAJIO      CLOUDY    73  59  60 NE6       30.20S
GUADALAJARA    PTSUNNY   81  55  41 SE5       30.08F
MANZANILLO     PTSUNNY   88  79  74 SW9       29.74  HX 102
MAZATLAN       MOSUNNY   90  79  70 W9        29.80S HX 105
P. VALLARTA    PTSUNNY   90  81  74 SW14      29.78F HX 108
URUAPAN        TSTM      66  63  88 NE8       30.14S
ZACATECAS      PTSUNNY   63  57  82 CALM      30.22

CENTRAL MEXICO

CITY           SKY/WX    TMP DP  RH WIND       PRES   REMARKS
CUERNAVACA     MOSUNNY   79  63  57 S3        30.02F
MEXICO CITY    TSTM      68  55  64 N17G29    30.23R
MORELIA        CLOUDY    68  61  77 S5        30.15F
POZA RICA      SUNNY     88  73  62 E7        29.90S HX  96
PUEBLA         PTSUNNY   75  54  46 S13       30.22F
QUERETARO        N/A    N/A N/A N/A MISG        N/A
S. LUIS POTOSI PTSUNNY   73  54  49 SE8       30.16
TAMPICO        MOSUNNY   86  75  70 NE12      29.86F HX  95
TOLUCA         PTSUNNY   66  50  55 SW5       30.30R

SOUTHERN MEXICO

CITY           SKY/WX    TMP DP  RH WIND       PRES   REMARKS
ACAPULCO       PTSUNNY   88  77  70 SW6       29.78F HX 100
B. DE HUATULCO PTSUNNY   88  77  70 CALM      29.88  HX 100
OAXACA         HVY RAIN  70  59  68 E18       30.11R
P. ESCONDIDO   PTSUNNY   86  75  70 SW9       29.89F HX  95
VERACRUZ       MOSUNNY   88  75  66 NE8       29.86F HX  97
ZIHUATANEJO    MOSUNNY   91  77  62 SW8       29.78  HX 105

YUCATAN PENINSULA

CITY           SKY/WX    TMP DP  RH WIND       PRES   REMARKS
CAMPECHE       PTSUNNY   88  81  79 NW14      29.81R HX 105
CANCUN         PTSUNNY   86  79  79 N8        29.85R HX  99
CHETUMAL       PTSUNNY   88  79  74 SE6       29.80R HX 102
CD. DEL CARMEN MOSUNNY   88  77  70 N10       29.82F HX 100
COZUMEL        PTSUNNY   82  79  89 NE9       29.84R HX  93
MERIDA         PTSUNNY   91  70  49 N12       29.82R HX  97
MINATITLAN     PTSUNNY   84  68  58 N12       29.79S
TAPACHULA      PTSUNNY   81  79  94 CALM      29.80R
TUX. GUTIERREZ MOSUNNY   86  70  58 W15       29.84S HX  90
VILLAHERMOSA   PTSUNNY   88  75  66 N14       29.84F HX  97

CENTRAL AMERICA

CITY           SKY/WX    TMP DP  RH WIND       PRES   REMARKS
BELIZE CITY    MOSUNNY   90  75  62 E7        29.82R HX 100
MANAGUA        PTCLDY    88  75  66 SW7       29.71S HX  97

CARIBBEAN

CITY           SKY/WX    TMP DP  RH WIND       PRES   REMARKS
ARUBA          PTCLDY    86  79  79 E14       29.80R HX  99
CURACAO        PTCLDY    84  79  84 E15       29.83R HX  96
KINGSTON       PTCLDY    84  73  70 SE18      29.83S HX  91
NASSAU         MOCLDY    86  77  74 E14       29.87R HX  97
SAN JUAN       PTCLDY    82  77  83 E9        29.93R HX  91
SANTO DOMINGO  LGT RAIN  77  75  94 CALM      29.92S
ST. CROIX      PTCLDY    81  75  83 NW3       29.94R
ST. KITTS      PTCLDY    79  75  89 N9        29.94R
ST. MAARTEN    PTCLDY    84  75  74 E6        29.92S HX  92

$$





USA.gov is the U.S. government's official web portal to all federal, state and local government web resources and services.